Location: Canyon City
(32.5951°N, 116.5278°W)
Time: 22:15:39
(UTC+00:00)

OAO 3 Rocket - Pass Details

Date: 07 December 2024
Orbit: 618 x 666 km, 35.0° (Epoch: 19 January)

Event Time Altitude Azimuth Distance (km) Brightness Sun altitude
Exits shadow 11:51:21 23° 122° (ESE) 1,336 5.2 -33.8°
Drops below altitude 10° 11:53:54 10° 93° (E) 2,002 6.5 -33.2°
Sets 11:56:30 0° 81° (E) 2,903 7.5 -32.7°
